(°F)
60°
59°
58°
58°
58°
59°
60°
(°F)
61°
60°
59°
59°
59°
59°
61°
W
WNW
WNW
WNW
WNW
WNW
WNW
(mph)
3-9
3-8
3-8
3-9
4-11
5-12
6-13
(in)
0
0
0
0
0
0.1
0.1
(%)
26
97
96
96
96
95
95

Sun elevation

/ -18.1°
sun-icon
UV 3
05:44
21:26
Waning crescent (335°)
02:27
20:48

METAR for 55.03°N 82.6°E (UNNT)

Time Conditions Temperature/
Dewpoint
Wind Visibility Weather Clouds Pressure Change Raw
VFR 60.8°F / 60.8°F 270º 6kt >10km - Scattered Clouds 1200ft 1006 No Significant change. Runway 25: Clear and dry, 51-100% contamination with <1mm, friction coefficient 0.70. Runway 16: deposit not reported, . UNNT 051730Z 27003MPS 9999 SCT012 BKN045 16/16 Q1006 R25/090070 R16/////// NOSIG RMK QFE744/0993
VFR 60.8°F / 60.8°F 270º 6kt >10km - Scattered Clouds 3000ft 1006 No Significant change. Runway 25: Clear and dry, 51-100% contamination with <1mm, friction coefficient 0.70. Runway 16: deposit not reported, . UNNT 051700Z 27003MPS 9999 SCT030 16/16 Q1006 R25/090070 R16/////// NOSIG RMK QFE744/0993
VFR 60.8°F / 60.8°F 270º 6kt >10km - Scattered Clouds 3000ft 1006 No Significant change. Runway 25: Clear and dry, 51-100% contamination with <1mm, friction coefficient 0.70. Runway 16: deposit not reported, . UNNT 051630Z 27003MPS 9999 SCT030 16/16 Q1006 R25/090070 R16/////// NOSIG RMK QFE744/0993
VFR 59°F / 59°F 280º 4kt >10km - Scattered Clouds 3300ft 1006 No Significant change. Runway 25: Clear and dry, 51-100% contamination with <1mm, friction coefficient 0.70. Runway 16: deposit not reported, . UNNT 051600Z 28002MPS 9999 SCT033 15/15 Q1006 R25/090070 R16/////// NOSIG RMK QFE744/0993
VFR 59°F / 59°F 290º 4kt >10km - Few Clouds 4300ft 1006 No Significant change. Runway 25: Clear and dry, 51-100% contamination with <1mm, friction coefficient 0.70. Runway 16: deposit not reported, . UNNT 051530Z 29002MPS 9999 FEW043CB 15/15 Q1006 R25/090070 R16/////// NOSIG RMK QFE745/0993
VFR 60.8°F / 60.8°F 290º 6kt >10km - Few Clouds 5300ft 1006 No Significant change. Runway 25: Clear and dry, 51-100% contamination with <1mm, friction coefficient 0.70. Runway 16: deposit not reported, . UNNT 051500Z 29003MPS 9999 FEW053CB 16/16 Q1006 R25/090070 R16/////// NOSIG RMK QFE744/0993
VFR 60.8°F / 60.8°F 310º 6kt >10km - Few Clouds 5000ft 1006 No Significant change. Runway 25: Clear and dry, 51-100% contamination with <1mm, friction coefficient 0.70. Runway 16: deposit not reported, . UNNT 051430Z 31003MPS 9999 FEW050CB 16/16 Q1006 R25/090070 R16/////// NOSIG RMK QFE744/0993
VFR 62.6°F / 59°F 300º 6kt >10km - Few Clouds 4600ft 1006 No Significant change. Runway 25: Clear and dry, 51-100% contamination with <1mm, friction coefficient 0.70. Runway 16: deposit not reported, . UNNT 051400Z 30003MPS 9999 FEW046CB 17/15 Q1006 R25/090070 R16/////// NOSIG RMK QFE744/0992
VFR 62.6°F / 57.2°F 290º 8kt >10km - Scattered Clouds 4600ft 1006 No Significant change. Runway 25: Clear and dry, 51-100% contamination with <1mm, friction coefficient 0.70. Runway 16: deposit not reported, . UNNT 051330Z 29004MPS 9999 SCT046CB 17/14 Q1006 R25/090070 R16/////// NOSIG RMK QFE744/0993
VFR 64.4°F / 55.4°F 300º 12kt >10km - Scattered Clouds 3000ft 1006 No Significant change. Runway 25: Clear and dry, 51-100% contamination with <1mm, friction coefficient 0.70. Runway 16: deposit not reported, . UNNT 051300Z 30006MPS 9999 SCT030CB 18/13 Q1006 R25/090070 R16/////// NOSIG RMK QFE744/0993
VFR 68°F / 59°F 310º 8kt >10km - Scattered Clouds 3600ft 1006 No Significant change. Runway 25: Clear and dry, 51-100% contamination with <1mm, friction coefficient 0.70. Runway 16: deposit not reported, . UNNT 051230Z 31004MPS 9999 SCT036CB 20/15 Q1006 R25/090070 R16/////// NOSIG RMK QFE744/0992
VFR 68°F / 59°F 300º 10kt >10km - Scattered Clouds 3000ft 1006 No Significant change. Runway 25: Clear and dry, 51-100% contamination with <1mm, friction coefficient 0.70. Runway 16: deposit not reported, . UNNT 051200Z 30005MPS 9999 SCT030CB 20/15 Q1006 R25/090070 R16/////// NOSIG RMK QFE744/0992
VFR 68°F / 60.8°F 300º 10kt >10km - Scattered Clouds 3000ft 1006 No Significant change. Runway 25: Clear and dry, 51-100% contamination with <1mm, friction coefficient 0.70. Runway 16: deposit not reported, . UNNT 051130Z 30005MPS 9999 SCT030CB 20/16 Q1006 R25/090070 R16/////// NOSIG RMK QFE744/0992
VFR 71.6°F / 59°F 320º 8kt >10km - Scattered Clouds 3000ft 1006 No Significant change. Runway 25: Clear and dry, 51-100% contamination with <1mm, friction coefficient 0.70. Runway 16: deposit not reported, . UNNT 051100Z 32004MPS 9999 SCT030CB 22/15 Q1006 R25/090070 R16/////// NOSIG RMK QFE744/0992
VFR 69.8°F / 60.8°F 300º 8kt >10km - Scattered Clouds 3000ft 1006 No Significant change. Runway 25: Clear and dry, 51-100% contamination with <1mm, friction coefficient 0.70. Runway 16: deposit not reported, . UNNT 051030Z 30004MPS 9999 SCT030CB 21/16 Q1006 R25/090070 R16/////// NOSIG RMK QFE744/0992
VFR 71.6°F / 59°F 300º 12kt >10km - Scattered Clouds 3000ft 1006 No Significant change. Runway 25: Clear and dry, 51-100% contamination with <1mm, friction coefficient 0.70. Runway 16: deposit not reported, . UNNT 051000Z 30006MPS 9999 SCT030CB 22/15 Q1006 R25/090070 R16/////// NOSIG RMK QFE744/0993
VFR 69.8°F / 59°F 350º variable 320º to 030º 8kt >10km - Scattered Clouds 3000ft 1006 No Significant change. Runway 25: Clear and dry, 51-100% contamination with <1mm, friction coefficient 0.70. Runway 16: deposit not reported, . UNNT 050930Z 35004MPS 320V030 9999 SCT030CB 21/15 Q1006 R25/090070 R16/////// NOSIG RMK QFE744/0992
VFR 69.8°F / 60.8°F 340º variable 300º to 020º 8kt >10km - Scattered Clouds 3000ft 1005 No Significant change. Runway 25: Clear and dry, 51-100% contamination with <1mm, friction coefficient 0.70. Runway 16: deposit not reported, . UNNT 050900Z 34004MPS 300V020 9999 SCT030CB 21/16 Q1005 R25/090070 R16/////// NOSIG RMK QFE744/0992
VFR 68°F / 59°F 320º 12kt >10km - Broken Clouds 3300ft 1006 No Significant change. Runway 25: Damp, 26-50% contamination with <1mm, friction coefficient 0.60. Runway 16: deposit not reported, . UNNT 050830Z 32006MPS 9999 BKN033CB 20/15 Q1006 R25/150060 R16/////// NOSIG RMK QFE744/0993
MVFR 69.8°F / 57.2°F 320º 12kt >10km - Broken Clouds 3000ft 1006 No Significant change. Runway 25: Damp, 26-50% contamination with <1mm, friction coefficient 0.60. Runway 16: deposit not reported, . UNNT 050800Z 32006MPS 9999 BKN030CB 21/14 Q1006 R25/150060 R16/////// NOSIG RMK QFE745/0993
VFR 68°F / 57.2°F 340º 12kt >10km - Scattered Clouds 2600ft 1006 No Significant change. Runway 25: Damp, 26-50% contamination with <1mm, friction coefficient 0.60. Runway 16: deposit not reported, . UNNT 050730Z 34006MPS 9999 SCT026CB 20/14 Q1006 R25/150060 R16/////// NOSIG RMK QFE745/0993
VFR 69.8°F / 59°F 320º 14kt >10km - Scattered Clouds 2600ft 1006 No Significant change. Runway 25: Damp, 26-50% contamination with <1mm, friction coefficient 0.60. Runway 16: deposit not reported, . UNNT 050700Z 32007MPS 9999 SCT026CB 21/15 Q1006 R25/150060 R16/////// NOSIG RMK QFE745/0993
VFR 68°F / 57.2°F 310º 12kt >10km - Scattered Clouds 2600ft 1007 No Significant change. Runway 25: Damp, 26-50% contamination with <1mm, friction coefficient 0.60. Runway 16: deposit not reported, . UNNT 050630Z 31006MPS 9999 SCT026CB 20/14 Q1007 R25/150060 R16/////// NOSIG RMK QFE745/0993
VFR 69.8°F / 59°F 330º 10kt >10km - Scattered Clouds 2600ft 1007 No Significant change. Runway 25: Damp, 26-50% contamination with <1mm, friction coefficient 0.60. Runway 16: deposit not reported, . UNNT 050600Z 33005MPS 9999 SCT026CB 21/15 Q1007 R25/150060 R16/////// NOSIG RMK QFE745/0993

VFR

60.8°F / 60.8°F

[More]
Wind 270º 6kt
Visibility >10km
Weather -
Clouds Scattered Clouds 1200ft
Pressure 1006
Change No Significant change. Runway 25: Clear and dry, 51-100% contamination with <1mm, friction coefficient 0.70. Runway 16: deposit not reported, .
Raw UNNT 051730Z 27003MPS 9999 SCT012 BKN045 16/16 Q1006 R25/090070 R16/////// NOSIG RMK QFE744/0993

VFR

60.8°F / 60.8°F

[More]
Wind 270º 6kt
Visibility >10km
Weather -
Clouds Scattered Clouds 3000ft
Pressure 1006
Change No Significant change. Runway 25: Clear and dry, 51-100% contamination with <1mm, friction coefficient 0.70. Runway 16: deposit not reported, .
Raw UNNT 051700Z 27003MPS 9999 SCT030 16/16 Q1006 R25/090070 R16/////// NOSIG RMK QFE744/0993

VFR

60.8°F / 60.8°F

[More]
Wind 270º 6kt
Visibility >10km
Weather -
Clouds Scattered Clouds 3000ft
Pressure 1006
Change No Significant change. Runway 25: Clear and dry, 51-100% contamination with <1mm, friction coefficient 0.70. Runway 16: deposit not reported, .
Raw UNNT 051630Z 27003MPS 9999 SCT030 16/16 Q1006 R25/090070 R16/////// NOSIG RMK QFE744/0993

VFR

59°F / 59°F

[More]
Wind 280º 4kt
Visibility >10km
Weather -
Clouds Scattered Clouds 3300ft
Pressure 1006
Change No Significant change. Runway 25: Clear and dry, 51-100% contamination with <1mm, friction coefficient 0.70. Runway 16: deposit not reported, .
Raw UNNT 051600Z 28002MPS 9999 SCT033 15/15 Q1006 R25/090070 R16/////// NOSIG RMK QFE744/0993

VFR

59°F / 59°F

[More]
Wind 290º 4kt
Visibility >10km
Weather -
Clouds Few Clouds 4300ft
Pressure 1006
Change No Significant change. Runway 25: Clear and dry, 51-100% contamination with <1mm, friction coefficient 0.70. Runway 16: deposit not reported, .
Raw UNNT 051530Z 29002MPS 9999 FEW043CB 15/15 Q1006 R25/090070 R16/////// NOSIG RMK QFE745/0993

VFR

60.8°F / 60.8°F

[More]
Wind 290º 6kt
Visibility >10km
Weather -
Clouds Few Clouds 5300ft
Pressure 1006
Change No Significant change. Runway 25: Clear and dry, 51-100% contamination with <1mm, friction coefficient 0.70. Runway 16: deposit not reported, .
Raw UNNT 051500Z 29003MPS 9999 FEW053CB 16/16 Q1006 R25/090070 R16/////// NOSIG RMK QFE744/0993

VFR

60.8°F / 60.8°F

[More]
Wind 310º 6kt
Visibility >10km
Weather -
Clouds Few Clouds 5000ft
Pressure 1006
Change No Significant change. Runway 25: Clear and dry, 51-100% contamination with <1mm, friction coefficient 0.70. Runway 16: deposit not reported, .
Raw UNNT 051430Z 31003MPS 9999 FEW050CB 16/16 Q1006 R25/090070 R16/////// NOSIG RMK QFE744/0993

VFR

62.6°F / 59°F

[More]
Wind 300º 6kt
Visibility >10km
Weather -
Clouds Few Clouds 4600ft
Pressure 1006
Change No Significant change. Runway 25: Clear and dry, 51-100% contamination with <1mm, friction coefficient 0.70. Runway 16: deposit not reported, .
Raw UNNT 051400Z 30003MPS 9999 FEW046CB 17/15 Q1006 R25/090070 R16/////// NOSIG RMK QFE744/0992

VFR

62.6°F / 57.2°F

[More]
Wind 290º 8kt
Visibility >10km
Weather -
Clouds Scattered Clouds 4600ft
Pressure 1006
Change No Significant change. Runway 25: Clear and dry, 51-100% contamination with <1mm, friction coefficient 0.70. Runway 16: deposit not reported, .
Raw UNNT 051330Z 29004MPS 9999 SCT046CB 17/14 Q1006 R25/090070 R16/////// NOSIG RMK QFE744/0993

VFR

64.4°F / 55.4°F

[More]
Wind 300º 12kt
Visibility >10km
Weather -
Clouds Scattered Clouds 3000ft
Pressure 1006
Change No Significant change. Runway 25: Clear and dry, 51-100% contamination with <1mm, friction coefficient 0.70. Runway 16: deposit not reported, .
Raw UNNT 051300Z 30006MPS 9999 SCT030CB 18/13 Q1006 R25/090070 R16/////// NOSIG RMK QFE744/0993

VFR

68°F / 59°F

[More]
Wind 310º 8kt
Visibility >10km
Weather -
Clouds Scattered Clouds 3600ft
Pressure 1006
Change No Significant change. Runway 25: Clear and dry, 51-100% contamination with <1mm, friction coefficient 0.70. Runway 16: deposit not reported, .
Raw UNNT 051230Z 31004MPS 9999 SCT036CB 20/15 Q1006 R25/090070 R16/////// NOSIG RMK QFE744/0992

VFR

68°F / 59°F

[More]
Wind 300º 10kt
Visibility >10km
Weather -
Clouds Scattered Clouds 3000ft
Pressure 1006
Change No Significant change. Runway 25: Clear and dry, 51-100% contamination with <1mm, friction coefficient 0.70. Runway 16: deposit not reported, .
Raw UNNT 051200Z 30005MPS 9999 SCT030CB 20/15 Q1006 R25/090070 R16/////// NOSIG RMK QFE744/0992

VFR

68°F / 60.8°F

[More]
Wind 300º 10kt
Visibility >10km
Weather -
Clouds Scattered Clouds 3000ft
Pressure 1006
Change No Significant change. Runway 25: Clear and dry, 51-100% contamination with <1mm, friction coefficient 0.70. Runway 16: deposit not reported, .
Raw UNNT 051130Z 30005MPS 9999 SCT030CB 20/16 Q1006 R25/090070 R16/////// NOSIG RMK QFE744/0992

VFR

71.6°F / 59°F

[More]
Wind 320º 8kt
Visibility >10km
Weather -
Clouds Scattered Clouds 3000ft
Pressure 1006
Change No Significant change. Runway 25: Clear and dry, 51-100% contamination with <1mm, friction coefficient 0.70. Runway 16: deposit not reported, .
Raw UNNT 051100Z 32004MPS 9999 SCT030CB 22/15 Q1006 R25/090070 R16/////// NOSIG RMK QFE744/0992

VFR

69.8°F / 60.8°F

[More]
Wind 300º 8kt
Visibility >10km
Weather -
Clouds Scattered Clouds 3000ft
Pressure 1006
Change No Significant change. Runway 25: Clear and dry, 51-100% contamination with <1mm, friction coefficient 0.70. Runway 16: deposit not reported, .
Raw UNNT 051030Z 30004MPS 9999 SCT030CB 21/16 Q1006 R25/090070 R16/////// NOSIG RMK QFE744/0992

VFR

71.6°F / 59°F

[More]
Wind 300º 12kt
Visibility >10km
Weather -
Clouds Scattered Clouds 3000ft
Pressure 1006
Change No Significant change. Runway 25: Clear and dry, 51-100% contamination with <1mm, friction coefficient 0.70. Runway 16: deposit not reported, .
Raw UNNT 051000Z 30006MPS 9999 SCT030CB 22/15 Q1006 R25/090070 R16/////// NOSIG RMK QFE744/0993

VFR

69.8°F / 59°F

[More]
Wind 350º variable 320º to 030º 8kt
Visibility >10km
Weather -
Clouds Scattered Clouds 3000ft
Pressure 1006
Change No Significant change. Runway 25: Clear and dry, 51-100% contamination with <1mm, friction coefficient 0.70. Runway 16: deposit not reported, .
Raw UNNT 050930Z 35004MPS 320V030 9999 SCT030CB 21/15 Q1006 R25/090070 R16/////// NOSIG RMK QFE744/0992

VFR

69.8°F / 60.8°F

[More]
Wind 340º variable 300º to 020º 8kt
Visibility >10km
Weather -
Clouds Scattered Clouds 3000ft
Pressure 1005
Change No Significant change. Runway 25: Clear and dry, 51-100% contamination with <1mm, friction coefficient 0.70. Runway 16: deposit not reported, .
Raw UNNT 050900Z 34004MPS 300V020 9999 SCT030CB 21/16 Q1005 R25/090070 R16/////// NOSIG RMK QFE744/0992

VFR

68°F / 59°F

[More]
Wind 320º 12kt
Visibility >10km
Weather -
Clouds Broken Clouds 3300ft
Pressure 1006
Change No Significant change. Runway 25: Damp, 26-50% contamination with <1mm, friction coefficient 0.60. Runway 16: deposit not reported, .
Raw UNNT 050830Z 32006MPS 9999 BKN033CB 20/15 Q1006 R25/150060 R16/////// NOSIG RMK QFE744/0993

MVFR

69.8°F / 57.2°F

[More]
Wind 320º 12kt
Visibility >10km
Weather -
Clouds Broken Clouds 3000ft
Pressure 1006
Change No Significant change. Runway 25: Damp, 26-50% contamination with <1mm, friction coefficient 0.60. Runway 16: deposit not reported, .
Raw UNNT 050800Z 32006MPS 9999 BKN030CB 21/14 Q1006 R25/150060 R16/////// NOSIG RMK QFE745/0993

VFR

68°F / 57.2°F

[More]
Wind 340º 12kt
Visibility >10km
Weather -
Clouds Scattered Clouds 2600ft
Pressure 1006
Change No Significant change. Runway 25: Damp, 26-50% contamination with <1mm, friction coefficient 0.60. Runway 16: deposit not reported, .
Raw UNNT 050730Z 34006MPS 9999 SCT026CB 20/14 Q1006 R25/150060 R16/////// NOSIG RMK QFE745/0993

VFR

69.8°F / 59°F

[More]
Wind 320º 14kt
Visibility >10km
Weather -
Clouds Scattered Clouds 2600ft
Pressure 1006
Change No Significant change. Runway 25: Damp, 26-50% contamination with <1mm, friction coefficient 0.60. Runway 16: deposit not reported, .
Raw UNNT 050700Z 32007MPS 9999 SCT026CB 21/15 Q1006 R25/150060 R16/////// NOSIG RMK QFE745/0993

VFR

68°F / 57.2°F

[More]
Wind 310º 12kt
Visibility >10km
Weather -
Clouds Scattered Clouds 2600ft
Pressure 1007
Change No Significant change. Runway 25: Damp, 26-50% contamination with <1mm, friction coefficient 0.60. Runway 16: deposit not reported, .
Raw UNNT 050630Z 31006MPS 9999 SCT026CB 20/14 Q1007 R25/150060 R16/////// NOSIG RMK QFE745/0993

VFR

69.8°F / 59°F

[More]
Wind 330º 10kt
Visibility >10km
Weather -
Clouds Scattered Clouds 2600ft
Pressure 1007
Change No Significant change. Runway 25: Damp, 26-50% contamination with <1mm, friction coefficient 0.60. Runway 16: deposit not reported, .
Raw UNNT 050600Z 33005MPS 9999 SCT026CB 21/15 Q1007 R25/150060 R16/////// NOSIG RMK QFE745/0993

TAF for 55.03°N 82.6°E (UNNT)

From till


From till Wind 290º 6kt. Gust 16kt. Visibility 8000m. Broken Clouds 3000ft.
Temporarly from till Visibility 305.775m. Fog . Scattered Clouds 200ft. Broken Clouds 1600ft.
Temporarly from till Light Thunderstorm Rain .

Raw: TAF UNNT 051700Z 0518/0618 29003G08MPS 8000 BKN030CB TEMPO 0518/0602 0300 FG SCT002 BKN016CB TEMPO 0602/0618 -TSRA

Current satellite and rain images for 55.03°N 82.6°E

The location marker is placed on 55.03°N 82.6°E. [More]

The real-time satellite image combines visible light during daytime with infrared radiation during nighttime. At night, the image is not dark as infrared radiation can detect temperature differences. Unfortunately, low clouds and fog are difficult to distinguish from ground temperatures and thus can be almost invisible during the night. Meteosat satellite images for Europe are updated in real-time every 5 minutes. GOES-16/GOES-17 (North & South America) and Himawari (Asia) images update every 10 minutes.

Copyright 2021 EUMETSAT / meteoblue. / Copyright 2021 meteoblue

Radar and precipitation nowcast for 55.03°N 82.6°E

Drizzle
Light
Moderate
Heavy
Very Heavy
Hail

The location marker is placed on 55.03°N 82.6°E. This animation shows the precipitation radar for the last hour, as well as a 1h forecast. Drizzle or light snow fall might be invisible for the radar. Precipitation intensity is colour coded, ranging from light blue to orange.